Terug naar catalogus

CHINASAT 5B

SINOSAT 1

ActiefCommunicatieGEO
NORAD 25404·PAYLOAD·🇨🇳 China

Gelanceerd Jul 18, 1998 vanaf Xichang Satellite Launch Center

Loading…

TLE

VersSource: Space-Track

Epoch: Sep 14, 2026, 10:42 UTC

1 25404U 98044A   26257.44625126  .00000062  00000-0  00000-0 0  9990
2 25404  11.1433  44.4424 0006652 214.9247 323.5922  0.99194365102791

Volg CHINASAT 5B in realtime met AllMySat

Download on the App Store